Mc Cook Ben Nelson Regional Airport Mc Cook US
ICAO: KMCK
IATA: MCK
Category: Medium
Scheduled Services: No

Elevation: 2583 ft
TransAlt. 18000 ft.

Airport Communications:
ASOS:119.025
DENVER CNTR:118.475
COLUMBUS RDO:122.6
CTAF/UNICOM:122.8

KMCK Zoom In..

If you have problems with the map follow the link
https://www.worldairports.se/pages/airport.php?
ICAO=KMCK

Runways:

(A) RW 04 length 4000 ft width 75 ft
---- / hdg 38

(B) RW 12 length 6450 ft width 100 ft
ILS 110.95 / hdg 123

(C) RW 17 length 1350 ft width 160 ft
---- / hdg 173

(D) RW 22 length 4000 ft width 75 ft
---- / hdg 218

(E) RW 30 length 6450 ft width 100 ft
---- / hdg 303

(F) RW 35 length 1350 ft width 160 ft
---- / hdg 353

Location; KMCK
Day. 21 / Time. 19.53 Zulu
* Altimeter: 30.02
* Temperature: 01° c. 33.8°f.
* Wind from: 190° Speed 13 kn.
Dewpoint: -04° c.
Visibility: 9 Statute Miles.
Clouds: Scattered 11000 ft.

KMCK 211953Z AUTO 19013KT 9SM SCT110 01/M04 A3002 RMK AO2 SLP198 T00111044


Wind From 190°
Speed 13 kn.

 
 
jpsmedia worldairports.se 2020   terms of use